Date,TemperatureHighF,TemperatureAvgF,TemperatureLowF,DewpointHighF,DewpointAvgF,DewpointLowF,HumidityHigh,HumidityAvg,HumidityLow,PressureMaxIn,PressureMinIn,WindSpeedMaxMPH,WindSpeedAvgMPH,GustSpeedMaxMPH,PrecipitationSumIn
2013-3-1,56,44,32,41,35,29,95,71,44,29.90,29.80,3,1,8,0.00
2013-3-2,54,42,31,36,34,30,98,73,46,29.91,29.79,3,1,7,0.00
2013-3-3,49,38,30,33,28,26,93,69,43,29.94,29.83,4,1,12,0.00
2013-3-4,50,37,29,28,24,20,89,60,33,30.11,29.94,4,2,12,0.00
2013-3-5,61,47,28,57,39,26,95,76,42,30.12,29.67,5,1,18,0.05
2013-3-6,59,49,41,58,40,30,95,74,50,29.90,29.49,9,4,22,0.22
2013-3-7,56,46,38,36,33,31,78,62,43,30.16,29.90,6,3,14,0.01
2013-3-8,55,43,34,33,30,28,79,62,39,30.21,30.09,4,1,10,0.00
2013-3-9,64,48,36,37,34,30,91,61,35,30.29,30.21,5,2,11,0.00
2013-3-10,67,48,29,44,35,28,99,70,30,30.31,30.25,4,1,9,0.00
2013-3-11,71,57,43,57,50,42,100,80,54,30.28,30.00,7,2,16,0.00
2013-3-12,66,62,56,64,60,55,100,94,81,30.01,29.78,7,2,13,1.10
2013-3-13,62,53,45,58,41,31,100,66,31,30.05,29.87,6,1,11,0.03
2013-3-14,54,43,34,33,27,22,90,53,35,30.21,30.05,4,2,20,0.00
2013-3-15,58,45,29,44,33,25,96,66,29,30.20,29.97,4,1,12,0.00
2013-3-16,73,60,53,55,51,44,85,71,48,29.97,29.74,5,2,14,0.00
2013-3-17,66,55,47,54,49,42,96,82,66,30.16,29.85,4,1,9,0.00
2013-3-18,69,55,48,58,51,44,99,87,67,30.15,29.91,4,1,9,0.00
2013-3-19,71,58,47,57,52,43,99,83,39,29.97,29.82,4,1,13,0.48
2013-3-20,52,48,43,45,29,21,98,52,29,30.10,29.97,3,1,8,0.08
2013-3-21,54,44,32,38,32,19,98,66,43,29.94,29.69,5,2,11,0.00
2013-3-22,51,39,27,36,24,16,89,57,31,30.09,29.94,5,1,12,0.00
2013-3-23,61,46,33,41,35,31,96,70,41,30.05,29.92,2,0,5,0.00
2013-3-24,55,47,38,54,45,36,99,94,75,29.96,29.44,5,1,11,0.39
2013-3-25,52,45,37,45,40,31,98,82,56,29.80,29.50,6,2,19,0.05
2013-3-26,51,43,34,35,32,28,83,65,48,30.07,29.80,4,2,9,0.00
2013-3-27,57,45,32,35,31,28,90,63,34,30.19,30.07,5,2,13,0.00
2013-3-28,58,45,31,37,30,26,86,59,34,30.25,30.14,4,1,10,0.00
2013-3-29,63,45,29,40,34,27,97,69,31,30.32,30.20,4,1,11,0.00
2013-3-30,66,51,39,47,42,37,98,76,45,30.25,30.14,4,1,11,0.00
2013-3-31,68,56,44,58,50,-100,97,86,67,30.16,29.87,6,1,20,0.02